Showing default

COSMOS 2237, 22565

Orbit data source: Space-Track

COSMOS 2237, 22565 is a payload satellite owned by GRU (CIS) in LEO that was launched on Fri, 26 Mar 1993 UTC via a ZENIT-2 launch vehicle from the Tyuratam Missile And Space Complex (TTMTR). Payload-class satellites include a variety of spacecraft equipped with specific instruments for various scientific and technological missions. These include communications satellites like Starlink; space stations such as the ISS; scientific satellites like the Hubble; Earth observation satellites from companies like Planet Labs, Umbra, and HawkEye 360; GPS; miniature CubeSats for education and research; and military/defense satellites.

Loading next visibility...
Identifier
22565, 1993-016A
Orbit
LEO
Last TLE update
7 hours ago
Origin
Manufacturer
Yuzhnoe
Mission
Defense Sigint
Bus & Motor
TSELINA-2, Unknown motor
Mass
3,250 kg wet, 3,250 kg dry
Launch date (UTC)
1993-03-26 (32 years ago)
Launch vehicle
ZENIT-2
Launch site
Tyuratam Missile And Space Complex (TTMTR)
Object type
Payload
Rocket body
Debris
Shape & HBR
Unknown shape, 9.5 m
Radar Cross Section
Large (>1 m²)

Expand to show TLE details & history

TLE from 7 hours ago
0 COSMOS 2237
1 22565U 93016A   25199.70303041 -.00000306  00000-0 -13939-3 0  9992
2 22565  70.7860 298.3330 0005923  19.6178 340.5168 14.12445158666537
Epoch: 2025-07-18T16:52Z
TLE epoch observation values (Epoch: 2025-07-18T16:52:21.827Z)
Latitude
-0.00007°
Longitude
108.49134°
Altitude
849.363 km
Speed
7.43 km/s
True Right ascension
19h 53m 19s
True Declination
0° 00' 00"
Sunlit
Object was in full shadow at epoch
Visualization orbit readout
Latitude
-12.06163°
Longitude
103.64987°
Altitude
852.11 km
Speed
7.428 km/s
Apparent Right ascension
21h 28m 46s
Apparent Declination
-29° 47' 40"
Sunlit
Object is in full shadow
Visualization observer readout
Local Sidereal Time
12:24:19
Azimuth
88.076° E
Elevation
-52.99°
Doppler factor
1
Orbital elements
Apogee altitude
853.246 km
Perigee altitude
844.684 km
Semi-major axis
7,227.102 km
Eccentricity
0.00059
Inclination
70.786°
RAAN
298.333°
Arg. of periapsis
19.6178°
True anomaly
340.49415°
Mean anomaly
340.5168°
Eccentric anomaly
340.50547°
Mean motion
3.53262 °/min
Orbital period
101.91 mins
BSTAR
-0.00013939
Loading maneuver chart data...
Loading SW <> Apogee altitude chart data...
Loading historical data...
Loading historical data...
Loading historical data...
Loading historical data...
Loading historical data...
Loading historical data...
Loading historical data...
|